Total_Precipitation_Accumulation
1.06 1.19 1.05 0.96 1.32 1.29 1.50 1.65 2.10 2.35 2.72 2.86 3.44 3.93 3.85 3.93 4.38 4.78 4.86 5.16 5.55 5.46
1.23 1.26 1.55 2.03 2.53 2.59 2.39 2.54 2.79 3.49 4.02 4.68 5.50 5.91 6.42 6.04 5.24 5.63 5.42 4.92 5.15 5.21
1.52 1.90 2.18 2.33 2.53 2.97 3.40 3.40 3.55 3.86 4.32 4.75 4.59 5.02 5.06 5.07 4.54 4.02 4.09 4.30 4.36 4.66
2.09 2.17 2.62 2.85 2.83 3.15 3.65 3.71 3.35 2.97 3.32 3.56 3.74 4.10 3.83 3.64 3.93 3.97 3.94 4.39 4.57 4.27
2.71 2.96 2.82 3.00 2.92 2.67 3.68 3.90 3.67 3.63 3.24 3.68 3.53 3.18 2.97 2.84 2.84 3.12 3.11 3.32 4.05 4.25
2.75 2.81 3.04 2.88 2.76 2.63 2.50 3.12 3.12 3.19 3.13 2.64 3.05 2.78 2.50 2.50 2.66 2.53 2.81 2.93 2.71 2.51
2.09 1.95 1.95 1.84 2.02 2.21 2.24 2.10 1.99 2.15 2.31 2.26 1.92 2.03 1.82 1.71 1.60 1.72 1.67 1.81 2.11 2.06
1.87 1.98 1.52 1.37 1.39 1.76 1.73 1.80 2.00 2.03 2.13 2.41 2.26 2.13 2.11 2.04 1.70 1.59 1.52 1.29 1.19 1.37
1.27 1.31 1.34 1.33 1.17 1.21 1.43 1.59 1.74 2.00 2.44 2.71 2.86 2.80 2.22 1.88 1.75 1.61 1.40 1.30 1.15 1.12
1.06 1.04 1.11 1.07 0.98 0.94 1.10 1.27 1.51 1.71 1.74 1.83 2.13 2.62 2.21 1.94 1.45 1.31 1.36 1.33 1.23 1.19
0.99 0.93 0.98 0.89 0.88 0.85 0.86 0.89 0.83 0.82 0.85 0.87 1.03 1.49 1.53 1.68 1.43 1.47 1.49 1.46 1.59 1.61
0.98 0.85 0.92 0.99 1.08 1.05 0.96 0.86 0.74 0.61 0.52 0.48 0.48 0.72 0.71 0.83 0.76 1.05 1.35 1.42 1.51 1.68
1.05 1.11 1.14 1.14 1.19 1.20 1.07 1.04 1.10 1.02 0.81 1.00 0.82 1.17 0.96 0.89 0.70 0.83 0.89 1.00 1.12 1.64
1.31 1.11 0.97 0.94 0.85 1.04 1.08 1.10 1.22 1.42 1.44 1.26 1.41 1.56 1.76 1.44 0.95 0.88 0.92 1.01 1.07 1.30